Temp
12 13 13 13 14 15 16 15 15 15 15 15 15 14 14 14 14 14 14 14 14 14 13 13 13 12 13 13 12 12 11 11
12 12 12 13 15 15 15 15 15 15 15 14 14 14 14 14 13 13 13 13 13 13 13 13 13 12 12 12 12 11 11 11
11 12 13 13 15 15 15 14 14 14 14 14 13 13 13 13 12 13 12 13 13 13 13 13 12 12 12 12 11 11 11 10
11 11 12 13 14 14 14 14 14 14 13 13 12 12 12 12 12 12 12 13 13 13 13 13 12 12 12 11 11 10 10 10
11 11 13 13 14 14 14 14 14 13 13 12 12 12 12 12 12 12 12 12 12 12 12 12 11 11 11 11 10 10 10 9
11 11 13 13 13 14 14 13 13 13 12 12 12 12 12 12 12 12 12 12 12 11 11 11 10 10 10 10 10 9 9 8
12 12 12 13 13 13 13 13 12 13 13 12 12 12 12 12 12 12 11 11 11 11 10 10 10 10 10 9 9 9 9 8
11 12 13 13 13 13 13 13 13 12 12 12 12 12 12 12 12 11 11 11 11 10 10 10 10 9 10 10 9 8 8 8
12 13 13 13 13 13 13 13 13 13 12 12 12 12 12 12 12 11 11 10 11 10 10 10 10 10 9 8 7 7 6 6
13 13 13 13 13 13 13 13 12 12 12 12 12 12 12 12 11 11 11 11 10 10 10 10 9 9 8 7 6 6 5 5
13 13 13 13 13 13 13 12 12 11 12 12 12 12 11 11 11 11 11 10 10 10 9 9 8 6 6 5 5 5 4 4
13 13 13 13 13 12 12 12 11 11 11 11 11 11 11 11 11 10 10 10 9 9 8 7 6 5 5 4 4 4 4 4
13 14 13 13 12 12 12 12 11 11 11 11 11 11 11 10 10 10 9 9 8 8 7 6 6 5 4 4 4 3 3 3
13 14 13 12 12 12 12 12 12 11 10 10 10 10 10 10 9 9 9 8 7 7 6 6 5 5 4 3 3 3 3 2
14 14 13 13 13 12 12 11 11 10 10 10 10 10 10 9 9 8 8 7 6 6 6 5 5 4 3 3 2 2 2 2
15 14 14 13 12 11 11 12 12 11 11 10 10 9 8 8 8 7 7 6 6 6 5 4 4 3 3 2 2 1 1 1
14 14 14 13 12 10 11 11 11 11 10 10 9 8 7 7 7 6 6 6 5 5 4 4 3 3 2 2 1 1 1 0
14 13 13 12 11 11 11 12 11 11 10 9 8 7 7 6 6 6 6 6 5 4 4 4 3 2 2 1 1 0 0 -0
14 13 12 12 11 11 11 11 11 11 10 9 8 7 6 6 6 5 5 4 4 4 4 3 3 2 1 1 0 -0 -1 -1
14 13 12 11 11 11 11 11 10 10 9 8 7 7 7 6 6 5 4 4 4 3 3 2 2 1 -0 -1 -1 -1 -1 -2
Height
1523 1522 1531 1537 1538 1544 1548 1550 1551 1551 1554 1556 1558 1560 1560 1561 1563 1564 1566 1567 1566 1568 1570 1571 1571 1570 1570 1570 1571 1571 1571 1569
1523 1529 1533 1534 1542 1546 1548 1550 1552 1553 1555 1557 1559 1562 1562 1562 1563 1565 1567 1567 1568 1569 1571 1572 1572 1570 1571 1571 1570 1572 1570 1570
1521 1530 1537 1541 1545 1547 1549 1552 1553 1555 1556 1558 1561 1562 1562 1563 1565 1565 1567 1569 1570 1570 1571 1573 1572 1572 1571 1571 1570 1571 1570 1569
1529 1534 1540 1543 1546 1547 1549 1551 1554 1556 1557 1560 1562 1563 1564 1564 1566 1568 1569 1571 1571 1571 1570 1572 1573 1571 1573 1571 1570 1569 1568 1568
1532 1536 1539 1543 1546 1548 1551 1552 1553 1556 1558 1561 1563 1564 1565 1567 1568 1570 1570 1572 1571 1571 1570 1572 1571 1571 1571 1571 1570 1568 1567 1566
1538 1541 1544 1545 1547 1548 1551 1553 1554 1556 1559 1560 1564 1564 1565 1569 1569 1570 1571 1571 1571 1570 1570 1572 1570 1570 1569 1570 1568 1566 1565 1564
1539 1540 1544 1545 1547 1549 1551 1553 1555 1557 1559 1561 1564 1565 1567 1567 1569 1570 1571 1572 1571 1570 1570 1570 1569 1568 1568 1567 1565 1563 1563 1562
1541 1543 1544 1545 1548 1550 1552 1554 1554 1557 1558 1563 1564 1565 1566 1567 1568 1569 1570 1571 1570 1569 1569 1569 1568 1567 1565 1565 1563 1562 1561 1559
1539 1542 1543 1544 1548 1550 1553 1552 1556 1556 1560 1562 1564 1566 1565 1567 1567 1569 1568 1570 1568 1567 1568 1567 1566 1565 1563 1564 1562 1561 1558 1555
1538 1540 1542 1545 1548 1550 1551 1554 1556 1557 1560 1562 1563 1565 1565 1566 1566 1567 1567 1567 1567 1567 1566 1565 1563 1562 1561 1561 1560 1557 1555 1553
1536 1539 1542 1545 1547 1550 1552 1554 1556 1558 1560 1562 1563 1563 1564 1566 1565 1566 1566 1567 1567 1565 1563 1562 1561 1560 1558 1559 1557 1555 1553 1552
1536 1539 1541 1545 1547 1549 1550 1554 1555 1557 1559 1561 1561 1562 1563 1565 1564 1565 1565 1565 1564 1563 1561 1559 1558 1556 1556 1555 1553 1552 1551 1549
1536 1538 1540 1542 1545 1547 1549 1551 1554 1555 1558 1559 1560 1561 1562 1562 1563 1563 1563 1562 1561 1560 1558 1557 1555 1554 1553 1552 1550 1550 1548 1546
1535 1537 1539 1541 1543 1546 1548 1550 1552 1554 1556 1557 1558 1559 1560 1560 1561 1561 1560 1559 1558 1557 1556 1555 1554 1553 1552 1550 1549 1548 1545 1545
1532 1535 1538 1539 1542 1544 1546 1547 1550 1552 1553 1553 1555 1557 1559 1560 1560 1559 1557 1556 1556 1555 1554 1553 1552 1551 1550 1551 1547 1545 1543 1540
1529 1531 1534 1537 1540 1541 1543 1545 1547 1548 1551 1552 1554 1556 1558 1558 1557 1556 1555 1555 1554 1553 1552 1551 1551 1549 1548 1546 1545 1543 1540 1534
1526 1529 1531 1535 1536 1538 1542 1544 1546 1548 1549 1551 1553 1554 1554 1555 1554 1555 1553 1553 1553 1551 1550 1549 1547 1546 1544 1542 1540 1538 1537 1534
1524 1526 1530 1532 1534 1537 1540 1542 1544 1546 1548 1549 1550 1551 1551 1553 1552 1554 1554 1552 1548 1548 1547 1545 1544 1542 1540 1537 1535 1534 1531 1530
1518 1523 1526 1529 1531 1534 1537 1540 1542 1544 1545 1546 1545 1547 1548 1549 1549 1550 1550 1549 1547 1545 1543 1541 1539 1538 1535 1533 1531 1530 1528 1526
1514 1518 1522 1526 1529 1532 1535 1538 1540 1542 1543 1543 1544 1544 1545 1545 1545 1544 1544 1545 1543 1541 1539 1537 1535 1533 1531 1528 1527 1526 1523 1521
Wind_Speed
28 30 25 19 18 14 12 12 14 15 16 17 18 19 19 19 17 17 16 15 14 13 12 10 7 6 8 7 7 9 9 7
29 28 28 17 15 12 11 13 15 16 18 19 19 18 18 17 16 16 15 13 11 10 9 7 5 4 6 6 6 7 8 10
31 34 30 23 17 15 15 16 17 19 20 20 19 18 17 16 15 14 14 12 10 9 7 3 3 2 3 5 8 8 6 9
34 23 19 19 17 16 17 18 18 19 20 20 16 16 14 14 13 13 11 9 7 4 1 1 2 3 5 8 11 10 12 13
34 27 21 22 19 18 18 19 21 21 19 17 14 12 11 9 8 7 7 7 4 2 4 4 3 5 7 10 13 13 14 15
23 21 21 18 17 19 20 21 22 19 18 15 10 9 7 5 6 4 6 5 4 3 3 4 4 8 11 11 13 14 16 13
26 21 20 18 19 20 22 22 19 16 14 11 9 7 4 3 5 6 6 6 5 4 4 6 8 9 9 11 13 15 17 18
21 18 19 19 20 22 21 21 18 14 10 9 6 5 5 5 6 7 6 6 5 5 5 6 7 9 12 13 13 14 16 18
23 20 19 21 22 20 19 17 15 13 11 8 9 8 7 8 8 7 6 5 3 4 5 7 10 11 11 11 12 14 15 16
24 24 21 21 21 18 16 15 14 13 11 11 10 8 7 8 8 7 5 2 4 7 10 11 11 12 12 12 12 14 12 12
26 25 22 23 19 17 15 15 14 14 13 12 9 8 10 10 9 7 3 4 8 10 11 12 12 12 13 14 15 8 6 11
26 26 24 23 20 18 19 20 18 15 14 11 9 13 12 10 7 3 4 9 11 12 12 13 13 15 16 19 14 2 18 5
31 29 29 25 25 25 24 21 18 16 13 11 13 13 12 8 4 5 9 11 12 13 13 13 15 18 21 23 14 6 16 7
35 31 31 30 25 23 20 20 17 14 13 13 12 12 9 5 6 10 11 12 14 15 14 15 17 20 20 20 10 17 5 14
34 31 31 26 26 25 22 21 17 19 18 16 12 8 6 8 9 10 11 12 13 17 18 18 18 20 19 17 9 7 22 14
33 32 32 30 29 29 24 22 24 22 17 13 11 10 10 11 11 8 10 13 16 19 19 18 19 21 22 20 17 18 19 17
36 33 33 28 27 25 20 19 16 15 15 16 14 14 14 10 9 8 10 13 19 19 17 19 23 24 23 21 21 20 21 22
38 37 32 26 27 26 23 17 15 16 18 19 18 18 16 15 11 11 16 27 20 18 21 23 25 25 23 22 22 22 22 21
29 34 31 29 25 26 23 19 18 18 20 23 24 23 20 13 9 19 24 17 18 21 24 24 25 24 23 21 19 18 20 23
22 26 26 27 28 26 22 22 23 23 24 27 26 22 16 16 17 21 11 16 20 21 23 24 23 21 20 19 20 22 23 22
Wind_Direction
159 149 146 147 126 140 161 151 143 136 130 127 122 118 114 111 108 106 104 106 106 105 104 102 89 57 68 65 54 40 27 28
159 150 145 138 143 158 150 146 143 137 136 128 125 118 115 115 112 111 109 113 111 105 104 105 101 62 38 38 33 11 356 348
142 132 140 157 165 156 153 148 148 141 131 131 128 123 122 120 117 115 123 118 115 110 104 109 114 94 340 339 337 330 331 326
126 139 138 164 166 162 156 154 150 143 139 140 134 132 127 129 124 124 131 141 139 116 73 315 251 288 299 315 323 320 317 315
143 134 151 171 175 163 158 156 154 151 150 150 152 146 143 141 143 137 148 173 176 210 194 222 263 297 306 307 307 304 305 303
152 166 182 180 173 163 165 165 162 161 164 162 172 169 162 132 136 159 175 199 211 184 220 252 273 312 303 296 292 296 297 295
166 173 193 181 172 169 171 170 171 172 176 175 181 182 193 195 214 215 222 198 199 226 251 273 282 293 298 304 307 301 296 293
190 187 186 182 176 174 177 178 181 180 176 193 200 224 230 229 224 213 220 228 238 256 271 287 313 327 325 320 313 305 300 299
185 185 183 176 178 180 185 185 191 189 197 207 215 212 216 219 227 229 211 207 233 281 315 325 318 318 322 321 315 311 312 312
191 192 187 185 188 190 190 194 198 203 210 208 191 191 207 216 211 201 199 247 323 325 315 316 328 330 337 340 339 327 322 330
195 198 196 198 204 201 198 201 205 209 208 190 199 206 201 204 202 207 222 313 318 324 328 329 336 348 355 349 346 334 3 329
209 205 206 206 204 201 204 207 208 202 196 219 218 202 202 211 213 227 316 334 336 334 331 342 348 352 351 349 355 226 337 317
212 211 207 206 205 204 205 210 208 209 222 224 198 203 214 214 250 309 329 334 337 335 337 340 345 346 346 342 348 277 319 241
211 210 209 208 212 215 222 220 220 226 226 219 218 213 214 236 291 322 325 329 335 335 330 331 335 338 338 341 332 320 306 294
211 213 213 215 216 218 216 215 223 222 224 221 215 210 238 262 282 302 317 329 333 331 325 326 330 329 327 327 323 294 307 311
213 215 217 218 217 218 220 230 238 234 227 212 204 219 233 245 259 285 316 321 322 323 320 320 319 316 315 315 310 305 307 309
216 217 221 220 223 224 228 234 230 219 206 206 212 224 227 245 263 273 301 316 315 306 307 310 313 315 315 314 311 308 306 304
222 224 224 218 228 220 222 224 218 213 211 209 219 223 228 241 259 283 312 307 296 296 305 309 309 311 311 310 307 304 301 301
218 221 217 226 220 212 217 224 224 230 230 223 223 225 224 255 251 288 294 296 294 303 309 311 310 311 311 311 310 304 296 298
213 220 211 205 206 214 220 222 224 229 227 225 227 228 249 252 283 288 291 298 307 313 314 314 312 314 318 321 318 310 299 293